This is the latest recevied weather packets stored in our database for station/object VE8SKI. If no packets are shown the sender has not sent any weather packets the latest 10 day(s).
| Time | Temp. | Humidity | Pressure | Rain* | Wind** | Luminosity | Snow |
|---|---|---|---|---|---|---|---|
| 1777832847 | -1.11° C | 76% | 1017.1 hPa | 0 mm | 1.79 m/s, 76° | - | - |
| 1777832545 | -1.11° C | 77% | 1017.1 hPa | 0 mm | 2.24 m/s, 59° | - | - |
| 1777832245 | -1.11° C | 77% | 1017 hPa | 0 mm | 3.13 m/s, 4° | - | - |
| 1777831946 | -1.11° C | 76% | 1017 hPa | 0 mm | 3.58 m/s, 30° | - | - |
| 1777831646 | -1.11° C | 77% | 1017 hPa | 0 mm | 2.68 m/s, 35° | - | - |
| 1777831346 | -1.11° C | 77% | 1017 hPa | 0 mm | 1.79 m/s, 76° | - | - |
| 1777831047 | -1.11° C | 77% | 1017 hPa | 0 mm | 2.24 m/s, 60° | - | - |
| 1777830744 | -1.67° C | 78% | 1016.9 hPa | 0 mm | 1.79 m/s, 32° | - | - |
| 1777830444 | -1.67° C | 77% | 1016.8 hPa | 0 mm | 3.13 m/s, 55° | - | - |
| 1777830145 | -1.67° C | 78% | 1016.8 hPa | 0 mm | 2.24 m/s, 86° | - | - |
| 1777829845 | -1.67° C | 79% | 1016.8 hPa | 0 mm | 0.89 m/s, 93° | - | - |
| 1777829545 | -1.67° C | 78% | 1016.8 hPa | 0 mm | 1.34 m/s, 31° | - | - |
| 1777829246 | -1.67° C | 79% | 1016.7 hPa | 0 mm | 1.79 m/s, 24° | - | - |
| 1777828943 | -1.67° C | 79% | 1016.7 hPa | 0 mm | 1.79 m/s, 73° | - | - |
| 1777828644 | -2.22° C | 79% | 1016.6 hPa | 0 mm | 2.24 m/s, 25° | - | - |
| 1777828344 | -2.22° C | 79% | 1016.7 hPa | 0 mm | 2.24 m/s, 42° | - | - |
| 1777828044 | -1.67° C | 80% | 1016.6 hPa | 0 mm | 2.68 m/s, 77° | - | - |
| 1777827745 | -2.22° C | 79% | 1016.6 hPa | 0 mm | 2.24 m/s, 37° | - | - |
| 1777827445 | -2.22° C | 79% | 1016.6 hPa | 0 mm | 2.24 m/s, 55° | - | - |
| 1777827142 | -2.22° C | 79% | 1016.4 hPa | 0 mm | 3.13 m/s, 66° | - | - |
| 1777826843 | -2.22° C | 79% | 1016.4 hPa | 0 mm | 2.24 m/s, 104° | - | - |
| 1777826543 | -2.22° C | 79% | 1016.4 hPa | 0 mm | 2.68 m/s, 39° | - | - |
| 1777826243 | -2.22° C | 79% | 1016.4 hPa | 0 mm | 2.68 m/s, 21° | - | - |
| 1777825944 | -2.22° C | 80% | 1016.4 hPa | 0 mm | 2.24 m/s, 42° | - | - |
| 1777825644 | -2.22° C | 80% | 1016.3 hPa | 0 mm | 2.68 m/s, 53° | - | - |
* Rain latest hour (hover to see other rain measurements)
** Current wind speed in m/s (hover to see current wind gust speed)